Showing default

GALILEO 16 (26C), 41860

Orbit data source: Space-Track

GALILEO 16 (26C), 41860 is a payload satellite owned by GNSS Agency (ESA) that was launched on Thu, 17 Nov 2016 UTC via an ARIANE 5ES launch vehicle from the French Guiana (FRGUI). Payloads include a variety of satellites, spacecraft, and rockets equipped with specific instruments for various scientific and technological missions. These include communications satellites like Starlink; space stations such as the ISS; scientific satellites like the Hubble; Earth observation satellites from companies like Planet Labs, Umbra, and HawkEye 360; GPS; miniature CubeSats for education and research; and military/defense satellites.

Loading next visibility...
GALILEO 16 (26C) details
Identifier
41860, 2016-069B
Orbit
Active
Last TLE update3 days ago
Origin
Flag of ESAGNSS Agency (ESA)
ManufacturerOHB
MissionOperational Civil Navigation
Bus & MotorGALILEOSAT, AOCS
Mass738 kg wet, 700 kg dry
Launch date (UTC)
2016-11-17 (8 years ago)
Launch vehicle
ARIANE 5ES
Launch site
French Guiana (FRGUI)
Object type
Payload
Rocket body
Debris
Shape & HBRBox + 2 Pan, 14.71 m
Radar Cross Section9.223 m², Large (>1 m²)

Expand to show TLE details & history

TLE from 3 days ago
0 GALILEO 16 (26C)
1 41860U 16069B   24337.23929895  .00000047  00000-0  00000-0 0  9998
2 41860  55.1706 116.6530 0001592  29.8620 330.1061  1.70474621 50079
Epoch: 2024-12-02T05:44Z
Definitive object data (Epoch: 2024-12-02T05:44:35.429Z)
Latitude-0.00002°
Longitude-41.0819°
Altitude23,218.288 km
Speed3.67 km/s
True Right ascension07h 46m 31s
True Declination0° 00' 00"
Sunlit
Object was in daylight at TLE epoch
Visualization TLE readout
Latitude3.81031°
Longitude-38.50605°
Altitude23,217.709 km
Speed3.67 km/s
Apparent Right ascension08h 34m 53s
Apparent Declination-4° 04' 56"
Sunlit
Object is in daylight
Visualization observer readout
Local Sidereal Time02:16:15
Azimuth90.149° ESE
Elevation-6.191°
Doppler factor1
Orbital elements
Apogee altitude23,226.826 km
Perigee altitude23,217.401 km
Semi-major axis29,600.25 km
Eccentricity0.0001592
Inclination55.1706°
RAAN116.653°
Arg. of periapsis29.862°
True anomaly330.09701°
Mean anomaly330.1061°
Eccentric anomaly330.10155°
Mean motion0.42619 °/min
BSTARUnknown
Orbital period844.7 mins
Loading maneuver chart data...
Loading historical data...
Loading historical data...
Loading historical data...
Loading historical data...
Loading historical data...
Loading historical data...
Loading historical data...

GALILEO 16 (26C) Visibility forecast

Observer location: undefined°, undefined

Span
Click to sort rows by Start time (UTC) header in descending order
Start Az.
Max El. time (UTC)
Max El. Az.
Max El.
End time (UTC)
End Az.
74 mins2024-12-05 05:48:52.111Z63.597° ENE2024-12-05 06:25:52.111Z51.237° ENE11.951°2024-12-05 07:02:52.111Z39.573° NE
266 mins2024-12-05 21:09:52.111Z320.588° NNW2024-12-05 23:20:52.111Z286.493° WNW30.832°2024-12-06 01:35:52.111Z238.363° WSW
|